{"data":{"norad_id":45567,"epoch":"2026-09-20T03:21:28.605024Z","epoch_age_seconds":49341,"freshness":"FRESH","line1":"1 45567U 20025AN  26263.13991441  .00083111  00000+0  40935-3 0  9994","line2":"2 45567  53.0348 199.3712 0005416  79.3008 280.8623 15.81439696356002","mean_motion":15.81439696,"eccentricity":0.0005416,"inclination_deg":53.0348,"raan_deg":199.3712,"arg_perigee_deg":79.3008,"mean_anomaly_deg":280.8623,"bstar":0.00040935,"rev_number":35600,"period_min":91.056270033075,"perigee_km":322.73732961131,"apogee_km":329.99964995784,"semimajor_km":6704.5054897846,"source":"CELESTRAK","updated_at":"2026-09-20T09:00:38.447649Z"}}